CAPE
0 0 0 0 0 0 9 17 30 14 3 25 32 45 59 51 35 36 0 0 0 0
0 0 0 0 0 0 0 0 0 0 0 0 0 0 33 22 25 75 41 8 0 0
0 0 0 0 0 0 0 0 0 0 0 0 0 0 0 11 22 20 46 32 2 1
0 0 0 0 0 3 0 0 0 0 0 0 0 0 0 2 14 15 53 47 15 0
0 0 0 0 0 0 0 0 0 0 0 0 0 0 3 0 0 1 19 79 42 2
0 0 0 0 0 0 0 0 0 0 0 0 0 0 31 54 0 1 34 51 45 1
0 0 0 0 0 0 0 0 0 0 0 3 0 17 6 17 3 0 4 1 1 1
0 0 0 0 0 0 0 0 0 0 0 0 13 43 71 110 76 68 12 0 0 0
0 0 0 0 0 0 0 0 0 0 2 17 7 4 38 96 73 29 22 0 0 0
0 0 0 0 0 0 1 5 8 3 4 12 3 10 57 79 9 0 0 0 0 0
0 0 0 0 0 0 1 1 1 0 0 0 1 1 0 0 0 0 0 1 0 0
0 0 0 0 0 0 0 0 0 0 0 0 0 0 0 0 0 0 0 0 0 0
1 4 0 0 0 0 0 2 2 0 0 0 0 0 0 0 0 0 0 0 0 0
0 2 1 0 0 0 0 0 0 0 0 0 0 0 0 0 0 0 0 0 0 0
CIN
-0 -0 -0 -0 -0 -0 -13 -18 -36 -46 -2 -20 -11 -27 -46 -61 -76 -72 -0 -0 -0 -0
-0 -0 -0 -0 -0 -0 -0 -0 -0 -0 -0 -0 -1 -0 -13 -16 -28 -42 -87 -130 -0 -0
-0 -0 -0 -0 -0 -0 -0 -0 -0 -0 -0 -0 -0 -0 -0 -6 -7 -13 -47 -72 -55 -0
-0 -0 -0 -0 -0 -41 -9 -0 -0 -0 -0 -0 -0 -0 -0 -9 -8 -20 -28 -55 -92 -1
-0 -0 -0 -0 -0 -0 -0 -0 -0 -0 -0 -0 -0 -9 -123 -0 -0 -21 -49 -51 -85 -82
-0 -0 -0 -0 -0 -0 -0 -0 -0 -0 -0 -0 -0 -0 -78 -66 -0 -8 -30 -70 -88 -66
-0 -0 -0 -0 -0 -0 -0 -0 -0 -0 -0 -39 -1 -41 -44 -78 -71 -0 -25 -58 -0 -3
-0 -0 -0 -0 -0 -0 -0 -0 -0 -0 -0 -0 -62 -55 -31 -24 -19 -33 -33 -0 -110 -0
-0 -0 -0 -0 -0 -0 -0 -0 -0 -0 -25 -99 -71 -72 -67 -74 -65 -83 -95 -10 -0 -0
-0 -0 -0 -0 -0 -0 -49 -80 -89 -47 -64 -51 -66 -87 -111 -107 -125 -0 -0 -0 -0 -0
-0 -0 -0 -0 -0 -0 -15 -49 -71 -0 -0 -0 -49 -39 -0 -0 -0 -0 -0 -0 -0 -0
-0 -0 -0 -0 -0 -0 -1 -0 -0 -0 -0 -0 -0 -0 -0 -0 -0 -0 -0 -0 -0 -0
-0 -0 -0 -0 -0 -0 -0 -3 -3 -0 -0 -0 -0 -0 -0 -0 -0 -0 -0 -0 -0 -0
-0 -4 -0 -0 -2 -0 -0 -0 -0 -0 -0 -0 -0 -0 -0 -0 -0 -0 -0 -0 -0 -0
Wind_Speed
39 39 39 39 39 39 40 41 42 42 42 44 41 38 36 36 36 35 38 39 38 39
38 38 37 37 37 37 37 38 39 40 40 41 42 43 42 38 37 35 37 38 39 38
37 37 39 40 40 38 36 36 37 36 38 39 40 43 43 42 40 37 35 35 39 39
38 38 38 39 37 36 37 36 36 37 41 41 40 36 36 44 38 38 37 36 39 40
40 40 39 40 39 37 38 37 37 39 38 36 35 36 39 40 42 41 40 34 33 36
41 42 42 42 40 39 37 37 36 36 34 32 33 36 43 40 41 39 38 37 36 36
42 42 41 40 39 38 37 37 38 36 33 31 31 32 36 35 29 30 38 35 36 37
41 40 39 37 37 36 36 38 38 37 36 35 33 32 31 33 38 40 36 30 32 34
41 39 38 39 40 39 40 41 39 38 37 33 29 33 34 36 38 38 38 39 38 35
39 40 41 42 43 42 41 40 40 39 36 37 36 36 36 38 38 41 43 41 39 40
41 43 43 41 40 41 39 39 38 38 40 44 39 39 39 39 38 40 40 40 38 37
43 43 40 38 37 36 36 35 34 37 41 42 45 41 42 39 38 39 42 40 38 36
39 38 39 35 34 32 31 28 25 34 39 42 41 38 40 40 39 38 36 37 35 35
37 36 34 32 32 32 32 32 31 31 31 29 30 33 35 38 37 35 37 35 35 31
Wind_Direction
325 324 323 323 322 319 317 316 315 314 313 310 308 306 304 303 302 301 301 300 300 295
327 327 327 326 326 324 321 320 320 318 317 317 315 312 305 302 301 302 299 297 296 295
326 326 325 324 323 324 324 324 323 323 321 318 316 318 313 305 298 298 306 302 294 293
328 327 325 324 324 324 324 324 323 321 320 319 317 314 310 302 297 299 301 299 296 295
323 322 321 321 321 321 319 319 319 319 321 321 319 313 301 294 297 302 302 304 305 303
323 321 320 319 318 317 317 317 318 318 318 319 319 316 300 300 302 306 305 305 305 306
322 321 321 321 320 319 318 316 315 314 314 312 315 314 310 308 309 305 301 307 306 306
324 323 322 321 320 318 317 316 315 313 311 310 311 312 314 310 304 294 301 311 311 308
326 328 329 329 329 326 322 321 321 319 315 317 317 316 319 315 310 302 302 304 307 309
332 330 328 327 325 324 324 322 320 319 317 313 313 315 317 313 310 304 303 302 304 303
330 327 326 326 325 324 321 321 320 312 311 306 311 314 316 315 312 307 307 303 301 301
331 329 330 329 328 329 326 323 321 315 309 309 302 312 311 312 313 312 305 304 297 298
336 336 334 333 333 333 335 335 335 323 314 312 313 313 309 308 308 308 311 306 298 296
342 342 341 341 339 340 339 336 334 333 332 332 330 324 317 312 308 304 301 302 292 298